Dewpoint
73 73 74 74 74 74 73 73 73 73 74 71 72 73 73 73 74 74 74 74 73 73 72 72 71 72 70 71 73 72 72 72 73 74 74 73 74 76 76 76 75 75 74 73 73 73 73 73 72 72 72 72 71 71 72 72 72 72 73 72 72 72 71 72 72 72 72 71 71 71 71 71 71 71 71 71 71 71 71 71 71 71 72 72 72
73 74 73 74 74 75 74 73 73 73 72 72 72 72 71 73 73 74 74 73 74 73 70 68 67 69 70 68 67 67 68 69 71 71 73 73 74 75 76 76 76 75 74 73 72 73 73 73 73 73 73 72 73 72 71 72 72 72 72 72 72 72 72 72 71 72 72 72 71 72 72 71 72 72 72 72 72 71 70 71 71 71 71 72 72
73 74 74 74 75 75 74 74 73 73 74 73 74 74 72 73 74 73 74 75 73 70 68 67 69 67 66 64 64 65 65 67 65 69 68 71 73 75 76 76 76 75 74 74 73 74 73 73 73 73 73 72 72 72 72 71 71 72 71 71 72 72 73 72 72 72 71 72 72 72 72 72 72 72 72 72 72 71 71 71 71 71 71 71 72
74 75 74 75 74 74 74 74 73 74 75 74 74 74 73 73 75 76 76 75 71 68 67 62 63 61 65 61 62 64 63 64 61 67 71 72 72 74 75 76 74 75 75 74 74 74 74 73 74 73 73 73 73 73 73 72 72 72 72 72 72 72 72 72 73 73 72 72 72 72 72 72 72 72 73 73 72 71 72 71 71 72 72 72 72
74 75 74 73 74 76 75 75 75 75 75 76 76 75 74 74 74 75 74 72 67 66 65 62 61 63 62 60 62 64 64 64 65 66 70 71 71 74 74 75 76 75 75 74 75 74 74 74 73 73 73 72 73 72 73 73 72 72 72 72 72 72 72 72 72 72 72 72 73 73 73 72 72 72 72 72 72 72 72 72 72 72 72 72 72
76 76 74 73 75 75 75 74 75 76 76 77 74 74 73 74 73 74 70 68 65 65 63 63 60 61 61 59 60 65 62 60 61 64 67 69 70 73 74 75 76 77 75 74 74 74 74 74 73 73 73 72 72 73 73 73 73 73 72 72 72 72 72 72 72 72 72 72 72 72 73 73 72 72 72 72 72 72 72 73 73 73 73 72 72
76 76 76 74 73 74 74 74 76 76 75 76 75 74 74 73 73 73 70 66 64 66 65 65 63 62 62 62 61 62 63 58 62 62 66 72 73 72 73 73 76 76 75 73 73 74 74 73 73 73 73 73 73 72 73 73 73 72 72 72 72 72 72 72 72 72 72 72 72 72 72 73 73 73 73 73 72 72 72 73 73 73 73 73 73
76 77 75 74 73 72 72 74 77 76 76 77 76 74 74 74 75 71 67 64 63 63 65 65 64 62 63 62 62 61 61 61 61 59 62 68 70 72 72 73 75 76 75 75 74 75 74 73 73 73 73 73 73 73 73 72 73 72 73 72 72 72 72 72 72 72 72 72 72 73 73 72 72 73 73 73 73 73 72 72 72 72 72 72 72
76 76 75 74 72 73 71 74 77 75 77 77 75 75 75 73 75 71 68 67 61 59 61 64 64 62 61 60 60 63 63 64 61 61 62 67 69 69 73 75 76 75 76 74 74 75 73 73 73 72 73 73 73 72 72 73 73 73 72 72 72 72 72 72 72 72 72 72 72 72 72 73 73 73 73 73 72 72 72 72 73 72 72 72 72
76 75 75 74 73 73 72 74 76 76 76 76 75 75 76 75 74 71 68 67 61 60 60 62 64 63 61 57 63 62 63 63 64 63 62 65 69 71 72 74 73 71 73 73 72 75 74 73 73 73 73 72 73 73 72 73 73 72 73 72 72 72 73 72 72 72 72 72 72 72 72 72 72 72 72 72 72 72 72 72 72 72 72 72 72
75 76 75 73 72 73 73 74 74 76 77 76 75 76 75 74 72 71 70 67 65 63 61 61 65 61 59 60 63 66 66 63 65 63 64 61 65 72 71 73 72 72 72 71 73 73 74 74 75 75 75 72 73 73 73 73 73 72 72 72 72 73 72 72 72 72 72 72 72 72 72 72 72 72 72 72 72 72 72 72 72 72 72 72 72
76 75 76 74 73 73 73 73 74 75 76 74 73 74 76 77 72 69 71 69 67 65 63 62 63 64 63 63 64 66 67 65 66 64 64 63 66 71 68 71 72 71 70 71 71 72 73 74 74 74 74 73 73 73 73 73 73 72 72 72 72 72 72 72 72 71 72 71 71 71 70 72 71 72 72 72 72 71 71 72 71 72 71 71 72
75 75 75 75 75 74 74 75 74 75 75 73 73 73 74 74 71 72 70 69 66 65 63 64 65 61 64 64 65 67 65 65 64 63 61 62 64 70 70 70 71 71 72 72 71 70 71 72 72 72 73 75 74 74 74 73 73 73 73 73 73 72 72 72 72 72 71 70 71 70 70 70 70 71 72 71 71 72 72 72 72 72 72 71 72
75 76 76 76 76 74 75 74 74 74 75 74 74 74 74 73 70 70 71 68 66 62 64 64 60 60 58 60 63 62 65 62 61 60 61 63 65 69 69 64 64 66 69 71 70 67 67 70 72 72 73 73 73 73 75 75 73 72 72 72 72 72 72 72 72 71 72 72 72 72 72 71 71 72 72 72 72 72 71 72 71 71 71 71 71
76 76 76 76 76 75 75 74 75 74 74 74 74 74 74 72 71 69 67 69 66 66 66 66 59 60 64 64 60 59 63 62 61 60 59 61 63 62 62 61 62 65 66 67 65 64 63 66 71 73 73 73 72 72 70 71 73 72 72 73 72 72 72 72 72 72 72 72 72 72 72 72 72 72 72 72 71 71 71 71 71 71 71 71 71
74 75 76 76 76 75 75 74 75 75 75 74 74 73 74 73 71 70 68 66 64 65 66 67 65 63 62 61 59 57 58 61 62 61 60 60 59 60 61 62 63 65 65 63 60 63 64 67 69 69 69 71 70 69 68 69 73 72 72 73 73 73 72 71 71 71 71 71 70 70 70 70 71 71 71 71 71 71 71 72 72 72 72 71 71
75 75 75 76 77 76 75 75 75 75 75 74 74 72 73 71 71 70 69 65 63 63 66 67 67 67 65 60 56 58 56 57 56 61 59 59 59 59 62 61 61 65 61 61 65 65 64 65 68 69 69 69 69 66 65 67 68 70 72 73 72 71 71 68 68 69 67 67 68 69 69 68 68 68 68 69 70 70 71 71 71 71 71 71 71
75 75 75 75 76 76 76 75 75 75 75 74 74 73 73 72 70 69 68 69 66 62 65 67 67 68 68 65 68 62 60 60 59 59 64 60 62 59 61 59 62 65 65 64 65 65 65 64 66 67 68 67 65 64 62 62 65 66 64 70 71 67 68 69 67 67 67 67 67 67 68 68 68 67 68 68 68 69 70 70 70 70 70 70 70
74 75 75 75 76 77 77 76 75 75 76 75 74 73 72 72 69 69 69 70 67 64 65 65 67 68 65 62 64 63 61 62 59 61 61 62 60 59 58 58 60 63 63 60 60 63 64 64 61 63 64 64 63 63 65 63 62 64 66 67 68 67 67 69 68 67 67 67 66 66 67 68 68 68 68 68 68 68 68 68 68 68 68 68 68
73 75 75 75 76 76 77 76 75 74 74 75 74 73 72 73 71 71 71 70 69 65 64 64 63 64 63 64 64 64 66 64 64 62 60 60 61 60 58 58 59 58 58 58 57 60 64 64 61 60 61 63 64 64 65 65 64 64 62 68 66 67 67 67 67 67 66 66 66 67 67 66 67 67 68 67 68 68 68 68 68 68 68 68 68
74 74 76 76 76 76 77 77 75 75 75 75 74 74 74 73 73 71 71 71 70 66 67 66 64 61 65 65 64 64 64 63 65 65 62 60 57 59 60 57 58 58 58 57 58 60 62 62 63 63 63 63 64 64 62 64 64 66 62 68 69 69 69 68 66 65 66 67 67 65 64 66 66 66 67 67 67 67 67 67 66 67 67 66 65
76 76 76 76 76 76 75 76 76 74 74 75 74 74 74 74 74 72 72 71 70 67 66 68 66 66 66 66 64 63 64 65 63 62 62 63 59 56 58 59 59 59 60 58 61 58 58 61 61 59 61 63 62 62 63 64 65 64 66 66 66 69 70 70 70 67 66 67 67 66 64 63 64 66 66 66 65 66 66 65 65 65 64 64 64
73 75 75 76 76 76 74 74 75 75 75 76 75 73 73 73 73 73 72 71 70 68 67 68 68 68 67 66 64 63 63 63 62 61 62 62 60 55 53 54 54 58 61 60 63 60 59 60 60 57 64 64 63 64 64 64 67 67 72 68 69 67 68 70 70 69 69 67 64 65 65 64 63 62 64 65 66 66 66 65 65 66 65 65 64
75 72 74 74 76 75 76 75 75 75 75 76 76 75 73 72 73 73 72 71 72 69 68 67 68 68 68 65 64 63 63 62 61 64 63 62 61 60 58 59 60 58 61 64 62 61 60 61 59 60 62 62 64 65 64 65 66 73 68 70 71 71 69 68 68 70 70 70 69 66 65 64 64 64 63 63 63 63 64 65 66 66 65 65 65
75 73 73 74 75 76 76 75 76 76 76 75 76 76 75 72 73 73 72 71 71 70 67 67 67 67 65 64 63 64 63 62 61 61 62 62 63 61 57 57 59 59 61 61 60 58 58 59 62 60 61 64 64 65 65 65 64 70 72 70 71 71 70 70 69 70 70 70 70 69 69 68 68 68 68 66 66 66 66 65 64 64 64 64 64
74 75 72 73 73 76 77 76 77 77 76 77 76 76 76 74 74 73 72 72 72 71 69 68 68 68 68 66 65 64 63 62 62 60 60 61 61 60 61 61 60 57 61 63 63 60 59 60 59 63 62 63 63 64 65 63 63 74 72 67 71 70 70 69 70 69 70 70 70 70 69 68 67 67 68 69 68 67 68 68 68 67 67 65 65
73 75 76 74 75 76 77 76 76 77 77 76 76 76 76 75 75 74 73 71 72 71 69 68 66 67 68 67 67 66 64 64 60 61 59 59 59 60 60 61 57 54 57 61 62 62 57 61 60 60 65 66 65 65 66 65 65 73 72 71 64 70 70 69 69 69 69 69 69 70 70 69 69 68 68 68 69 69 68 68 68 69 69 69 68
75 75 76 75 76 76 77 76 77 77 77 77 77 76 76 75 74 74 73 71 71 72 70 69 66 68 67 68 67 64 65 64 63 62 61 61 60 60 61 61 59 57 56 58 59 60 58 58 61 63 64 66 66 65 68 67 62 73 70 66 65 68 70 69 68 68 68 68 69 69 69 69 69 69 69 69 69 69 69 68 69 69 69 69 68
74 76 76 77 77 77 77 76 77 77 77 77 77 76 76 75 74 75 74 71 72 72 70 69 68 66 67 68 67 65 66 67 65 63 65 64 63 62 61 59 60 59 59 59 60 57 59 55 56 65 66 67 68 65 66 65 66 67 64 65 64 66 68 68 69 68 68 68 68 68 68 68 68 68 68 68 68 69 69 69 69 69 69 70 69
73 74 76 77 77 77 77 77 76 77 76 75 76 76 76 75 75 75 75 74 72 72 72 70 68 67 67 67 67 65 66 67 66 65 66 67 63 63 62 62 63 62 60 60 60 60 58 59 53 60 68 68 66 67 65 66 71 66 63 64 64 63 67 68 69 68 68 67 67 67 67 67 67 67 67 67 67 67 67 68 68 69 69 69 69
75 76 77 77 77 77 78 77 76 76 77 76 76 76 76 75 74 74 75 74 72 72 72 71 69 67 67 67 68 65 66 67 67 65 66 66 64 63 63 64 64 64 63 62 59 61 60 59 60 57 64 65 61 63 65 65 69 65 64 65 66 68 67 68 68 67 67 66 66 66 65 65 65 65 65 65 66 66 67 67 67 68 68 69 69
74 75 76 76 76 76 76 75 74 75 76 76 75 76 76 76 75 74 73 73 73 73 72 71 69 68 68 68 68 67 67 67 66 65 65 67 65 63 64 64 65 65 64 63 62 60 63 57 60 62 60 65 64 63 64 65 70 70 66 66 67 71 67 64 68 67 66 66 65 65 64 64 64 65 65 65 66 66 67 67 67 67 67 68 68
74 74 75 76 76 76 75 76 74 75 77 76 76 77 76 76 76 75 74 74 73 73 73 72 71 70 69 68 68 68 68 67 66 65 65 65 66 64 65 65 64 65 65 64 62 62 64 64 61 60 62 62 62 65 65 64 66 68 67 65 66 65 64 64 64 67 66 66 65 64 64 64 64 64 65 65 66 66 67 67 67 66 66 66 66
75 74 76 75 76 75 75 76 76 75 77 78 76 76 77 76 76 75 75 74 74 74 73 73 72 70 71 69 68 68 68 68 67 66 65 63 64 63 64 64 64 64 66 65 63 62 63 65 64 63 62 64 63 66 66 64 64 65 66 67 67 67 66 65 64 62 67 66 64 64 64 63 63 64 64 64 65 65 65 65 65 64 64 64 64
75 75 75 75 76 77 76 76 77 77 77 77 77 76 76 77 76 75 74 74 73 73 72 73 73 72 71 70 68 68 68 67 67 66 66 66 65 65 65 65 65 64 67 67 65 64 63 63 66 64 63 64 64 65 66 66 67 66 66 67 64 64 65 65 64 61 68 66 65 64 63 63 63 63 63 64 64 63 63 62 62 62 62 61 61
74 76 75 76 76 77 76 77 77 77 77 77 77 76 77 76 76 76 76 75 74 73 73 73 73 72 71 70 69 67 67 68 68 67 66 66 66 66 66 67 67 66 67 68 67 65 65 64 65 64 64 65 64 65 65 66 65 66 66 66 65 65 63 64 65 65 66 65 65 64 63 63 63 62 62 62 62 61 60 60 60 60 60 60 60
72 75 76 76 76 77 76 76 77 77 77 77 77 76 76 76 76 75 75 76 75 75 74 74 73 73 72 71 70 68 68 68 68 67 67 67 66 66 66 67 67 66 66 67 68 67 66 65 64 66 66 66 65 66 65 64 65 66 66 66 65 67 68 64 62 63 65 64 65 64 63 63 62 62 62 62 62 61 61 60 60 60 60 60 59
73 72 75 75 76 77 77 77 77 77 78 77 77 77 75 76 76 75 75 75 75 75 74 74 73 73 72 72 71 70 68 68 68 67 68 68 68 67 67 67 67 67 67 67 68 68 67 65 66 64 67 65 65 66 67 66 65 65 67 67 68 68 68 66 63 62 64 65 65 67 65 64 63 62 62 62 62 61 61 60 60 60 59 58 57
72 71 71 75 75 76 77 77 76 77 77 77 77 77 76 76 76 76 74 74 74 74 74 73 72 72 72 72 72 71 70 69 69 68 68 69 68 68 68 68 67 68 67 67 67 66 66 66 66 65 64 65 66 65 66 69 69 67 66 65 66 67 68 68 67 67 64 64 65 65 64 64 64 63 59 60 61 61 61 61 60 59 59 57 56
71 71 70 72 74 75 76 76 76 77 77 77 77 78 77 76 75 76 74 74 74 74 74 74 72 72 72 72 70 71 70 70 70 69 68 69 69 69 68 68 68 68 67 66 66 65 65 65 63 63 64 63 64 65 69 71 69 68 67 65 65 65 67 69 69 67 68 67 65 61 64 65 64 64 60 61 62 62 61 61 62 62 61 59 57
72 71 71 70 73 75 75 76 76 76 75 76 77 77 76 76 76 75 75 74 74 74 74 72 72 72 71 71 71 70 72 70 67 67 66 67 69 69 69 69 68 68 68 67 66 65 64 64 64 64 64 63 63 64 66 67 65 64 66 68 67 66 66 64 67 69 68 67 65 64 64 65 64 63 64 64 65 67 67 63 63 64 63 60 59
73 74 73 72 71 73 75 76 76 76 75 76 73 67 69 75 75 75 75 75 74 74 74 73 71 71 71 70 70 68 67 68 66 65 64 64 65 68 69 70 69 68 68 67 66 65 65 64 63 63 62 62 61 64 64 66 67 68 67 68 67 66 66 65 65 67 69 66 64 64 63 64 62 63 63 62 63 63 63 62 62 62 62 60 60
74 75 74 73 72 72 74 74 75 75 75 75 67 65 65 67 73 75 75 75 75 74 73 74 73 71 71 71 70 70 69 67 69 64 64 63 64 64 66 67 67 69 68 67 66 66 65 64 64 63 62 63 62 64 66 65 66 66 66 67 66 66 65 63 60 64 69 68 67 64 62 64 63 62 62 61 61 63 62 63 62 62 60 60 60
75 74 74 74 74 72 72 73 74 75 75 69 64 64 64 64 67 75 75 74 74 74 73 73 73 72 71 71 71 71 70 69 69 70 67 64 63 63 63 65 65 65 66 68 67 66 66 65 64 63 63 63 63 65 65 65 66 66 67 67 67 66 64 63 63 62 66 68 66 62 61 63 63 60 61 60 61 62 60 61 60 60 60 60 60
75 75 75 74 74 74 73 74 74 74 74 67 63 62 63 63 64 69 73 74 73 73 73 73 73 73 73 72 71 72 71 68 69 70 70 69 63 62 62 64 65 64 63 64 66 69 66 66 65 64 64 63 63 67 66 66 67 67 67 66 66 66 65 65 64 62 65 66 63 62 59 60 60 59 58 60 60 62 60 61 61 61 61 60 59
75 75 75 75 75 75 74 74 75 74 75 66 62 61 61 62 63 66 73 73 73 73 73 73 72 73 73 73 73 72 72 71 70 70 71 70 69 68 68 68 68 67 64 63 63 65 68 65 66 65 65 65 65 70 69 68 68 66 66 65 66 66 67 65 67 66 65 64 61 61 59 58 59 58 58 59 58 59 59 59 60 60 60 59 59
75 75 75 75 75 75 74 73 74 74 74 63 60 59 60 60 61 63 73 72 73 74 73 73 73 73 73 73 73 73 72 72 71 70 71 71 70 69 68 67 67 67 67 66 65 65 66 64 64 65 66 67 69 69 69 69 68 68 69 69 69 68 68 67 65 64 62 62 63 61 59 58 59 57 56 55 53 55 57 57 59 60 60 59 58
74 74 75 75 74 74 75 74 73 74 73 61 59 59 58 59 60 69 73 73 72 73 73 74 73 74 73 73 74 73 73 73 68 63 67 72 71 70 69 68 67 67 66 65 63 63 65 65 65 63 62 63 65 74 74 67 69 69 68 67 67 67 64 62 60 58 57 59 62 61 59 58 59 52 53 54 54 55 56 55 59 59 59 58 58
73 73 74 74 75 74 74 75 74 74 74 66 58 57 57 58 60 71 73 73 73 73 73 73 72 72 72 73 74 74 73 72 66 61 63 66 71 69 69 69 67 66 65 67 64 61 62 61 62 61 59 60 60 59 60 62 70 67 65 65 65 62 63 62 61 58 57 57 57 59 57 56 56 54 53 54 55 55 55 55 56 58 57 56 55
72 72 73 74 75 75 73 74 73 74 74 66 55 56 56 56 62 72 72 72 73 73 73 73 72 72 72 69 72 73 73 73 61 60 61 67 71 70 70 68 68 67 66 65 67 68 61 62 61 60 61 61 61 60 61 61 62 65 67 62 60 60 60 61 58 56 54 57 56 56 58 55 55 55 53 55 55 54 53 54 54 53 52 50 50
73 73 73 73 74 75 74 73 69 72 73 65 55 56 56 56 63 72 72 72 72 72 73 72 72 71 72 70 68 69 70 70 59 59 59 64 70 69 70 68 67 67 66 66 65 67 67 67 68 67 67 64 68 68 67 62 64 67 66 63 61 61 59 57 55 55 55 55 57 61 58 56 55 52 53 52 51 51 52 52 52 51 51 50 48